Regional Weather Roundup
Issued by NWS

Home | Current Version | Previous Version | Text Only | Print | Product List | Glossary Off
Versions: 1 2 3 4 5 6 7 8 9 10 11 12 13 14 15 16 17 18 19 20 21 22 23 24 25 26 27 28 29 30 31 32 33 34 35 36 37 38 39 40 41 42 43 44 45 46 47 48 49 50

000
ASUS45 KBOU 270507
RWRCO

WEATHER ROUNDUP FOR COLORADO
NATIONAL WEATHER SERVICE DENVER/BOULDER CO
1100 PM MDT MON JUN 26 2017

NOTE: "FAIR" INDICATES FEW OR NO CLOUDS BELOW 12000 FEET WITH NO
SIGNIFICANT WEATHER AND/OR OBSTRUCTIONS TO VISIBILITY.

COZ001>005-013-030-031-270600-
...NORTHWEST COLORADO...

CITY           SKY/WX    TMP DP  RH WIND       PRES   REMARKS
CRAIG          FAIR      66  35  31 E5        30.10F
HAYDEN         FAIR      64  34  32 S7        30.14F
MEEKER         FAIR      64  37  36 NE8       30.13R
RABBIT EARS PA FAIR      59  21  23 W3        30.46F
STEAMBOAT SPGS FAIR      56  39  51 E7        30.18R
WALDEN         FAIR      54  36  50 S7        30.27S
$$

COZ006>008-011-270600-
...WEST CENTRAL VALLEYS...

CITY           SKY/WX    TMP DP  RH WIND       PRES   REMARKS
GRAND JUNCTION FAIR      79  20  11 E6        29.96R
MONTROSE       FAIR      73  34  23 SE9       30.08R
EAGLE          FAIR      62  29  28 SE3       30.18R
RIFLE          FAIR      70  31  23 SE8       30.06R
DELTA          FAIR      75  25  15 NE9       30.02S
NUCLA          FAIR      73  28  19 E9        30.13R
$$

COZ017>023-064>068-270600-
...SOUTHWEST COLORADO...

CITY           SKY/WX    TMP DP  RH WIND       PRES   REMARKS
DURANGO        FAIR      62  40  44 N6        30.22R
CORTEZ         FAIR      64  39  39 E5        30.12R
PAGOSA SPRINGS FAIR      60  31  33 CALM      30.31S
TELLURIDE      FAIR      61  32  33 S5        30.42S
WOLF CREEK PAS FAIR      52  27  37 SW8       30.67S
$$

COZ009-010-012-014-032>034-037-058>063-270600-
...CENTRAL COLORADO...

CITY           SKY/WX    TMP DP  RH WIND       PRES   REMARKS
ASPEN          FAIR      58  31  35 SW9       30.26S
BUENA VISTA    FAIR      61  37  40 SE6       30.35R
COPPER MTN     FAIR      54  36  50 S13       30.60F
BERTHOUD PASS  FAIR      43  30  61 S14G21    30.64F
COTTONWOOD PAS FAIR      59  32  36 E8        30.47S
GUNNISON       FAIR      65  35  33 N12       30.27R
KREMMLING      NOT AVBL
LEADVILLE      FAIR      49  34  56 CALM      30.45S
SALIDA         FAIR      62  39  43 SW10      30.39R
SUNLIGHT       FAIR      57  16  19 CALM      30.52F
WILKERSON PASS FAIR      50  32  50 S8        30.60S
$$

COZ069>075-270600-
...SAN LUIS VALLEY/SANGRE DE CRISTO MOUNTAINS...

CITY           SKY/WX    TMP DP  RH WIND       PRES   REMARKS
ALAMOSA        FAIR      53  45  74 S7        30.30F
DEL NORTE      FAIR      54  43  66 N3        30.34R
LA VETA PASS   FAIR      52  34  50 MISG      30.63R
SAGUACHE       FAIR      54  34  47 E3        30.34S
$$

COZ035-036-038>040-270600-
...NORTHERN COLORADO FRONT RANGE...

CITY           SKY/WX    TMP DP  RH WIND       PRES   REMARKS
DENVER INTL AP FAIR      66  47  50 E13       30.12S
DMNS CITY PARK   N/A     72  48  43 SE8G21    30.11S
AURORA         PTCLDY    70  49  47 S12       30.14S
FRONT RANGE AP FAIR      70  48  46 SE14      30.15S
ERIE MUNI ARPT FAIR      69  48  46 CALM      30.10F
BOULDER MUN AP FAIR      68  45  42 W3        30.11F
CENTENNIAL     FAIR      68  49  50 S14       30.15S
BROOMFIELD     FAIR      72  45  37 N3        30.14S
FORT COLLINS   FAIR      69  54  58 SE16G24   30.12R
LONGMONT       FAIR      69  50  51 NE5       30.12F
$$

COZ041-046-047-076>085-087-088-270600-
...PIKES PEAK/PALMER DIVIDE AND SOUTHERN FOOTHILLS...

CITY           SKY/WX    TMP DP  RH WIND       PRES   REMARKS
COLO. SPRINGS  FAIR      65  44  46 S7        30.22F
A. F. ACADEMY  FAIR      62  48  58 E3        30.23F
SCHRIEVER AFB  FAIR      60  45  58 SE12      30.22F
CHEYENNE MTN   MOCLDY    64  43  46 SW5       30.21F
ELLICOTT       FAIR     N/A N/A N/A S10       30.22R
FALCON           N/A     57  44  60 CALM      30.28S
FORT CARSON    FAIR      62  42  47 CALM      30.19S
LIMON          FAIR      62  56  80 E10       30.19S
MONUMENT HILL  FAIR      59  41  51 S13       30.27S
CANON CITY     CLEAR     68  48  49 E6        30.17R
WALSENBURG     FAIR      63  46  55 SW8       30.25R
TRINIDAD       FAIR      65  46  50 SE15G28   30.27R
$$

COZ042>045-048>051-090-091-270600-
...NORTHEAST COLORADO...

CITY           SKY/WX    TMP DP  RH WIND       PRES   REMARKS
GREELEY ARPT   NOT AVBL
AKRON          FAIR      62  56  80 SE15      30.15S
BURLINGTON     FAIR      62  58  86 SE12      30.14S
WRAY           FAIR      63  54  72 E9        30.13F
YUMA           FAIR      59  52  77 E8        30.13S
STERLING       FAIR      64  59  82 SE14G23   30.10S
HOLYOKE        NOT AVBL
FORT MORGAN    FAIR      64  55  72 SE10      30.14S
$$

COZ086-089-092>099-270600-
...SOUTHEAST COLORADO...

CITY           SKY/WX    TMP DP  RH WIND       PRES   REMARKS
PUEBLO         FAIR      65  47  52 CALM      30.13R
LA JUNTA       FAIR      73  50  44 NW9G17    30.09R
LAMAR          FAIR      75  53  46 S9        30.05F
SPRINGFIELD      N/A     70  54  56 W7        30.14F
$$



USA.gov is the U.S. government's official web portal to all federal, state and local government web resources and services.